Temp
24 23 23 23 24 25 26 27 27 29 29 29 27 26 26 25 26 30 30 30 31 29 29 31 30 28 28 28 29 29 29 29 29 29 29 29 28 28 28 27 27 26 25 25 24 23 23 23 21 21 20 20 20 20 20 20 20 20 20 20 20 19 19 19 18 19 19 19 19 19 19 19 19 19 18 18 18 18 18 18 18 18 17 17 17 18
24 22 23 24 25 27 27 27 28 28 29 29 28 26 26 26 27 30 31 30 31 29 28 31 30 28 28 27 28 28 28 28 28 28 28 29 29 28 28 27 26 25 25 25 24 23 23 22 21 20 19 19 19 19 19 19 19 19 19 19 19 18 18 19 18 18 18 18 18 18 18 18 19 19 18 18 18 18 18 18 18 17 17 18 18 18
22 22 24 26 26 27 27 27 27 28 29 28 28 26 25 27 28 29 30 30 31 29 29 31 28 26 28 27 27 28 27 27 28 28 28 28 28 27 26 25 25 24 24 24 23 22 22 21 20 19 19 19 19 19 19 19 19 19 19 18 18 18 18 18 18 18 18 18 18 18 18 18 18 18 18 18 18 18 17 17 18 17 17 17 18 18
21 23 25 26 26 27 27 27 27 27 27 27 27 25 24 27 27 25 27 30 30 30 30 30 27 26 27 27 27 27 27 27 27 27 27 27 26 26 25 24 24 23 23 22 21 21 21 20 20 19 19 19 18 19 19 19 19 19 19 18 18 18 18 18 18 18 18 18 18 18 18 18 18 18 18 18 18 18 17 17 17 17 17 17 17 18
23 24 26 26 26 27 26 26 27 26 25 26 28 26 25 28 28 26 27 29 29 30 31 29 24 24 26 26 26 27 26 26 26 25 25 25 25 25 24 22 22 22 22 21 20 20 20 19 19 19 19 19 18 18 18 18 18 18 18 18 18 18 18 18 18 18 18 18 18 18 18 18 18 19 18 18 18 18 17 17 17 17 17 17 17 17
24 26 26 26 26 27 26 26 27 26 24 25 27 28 29 30 29 28 28 27 25 25 29 28 22 21 25 26 26 26 26 26 25 25 24 24 24 24 23 22 21 21 20 20 19 19 19 19 18 18 18 18 18 18 18 17 17 18 18 18 18 18 18 18 18 18 19 19 19 19 19 19 20 20 20 20 19 18 18 17 17 17 17 17 17 17
25 27 27 26 26 26 26 26 27 27 24 23 26 29 30 31 29 28 27 25 22 22 28 29 23 21 24 25 26 27 26 26 25 24 24 24 23 22 22 20 20 19 19 19 19 19 19 18 18 18 18 18 18 18 17 17 17 18 18 18 18 18 18 18 18 19 19 19 19 19 20 20 20 21 20 20 19 19 18 17 17 17 17 17 16 17
26 26 26 26 26 26 25 25 26 27 24 24 28 29 30 30 29 28 27 25 24 25 27 28 26 22 21 24 26 27 26 25 24 23 23 22 22 20 19 19 19 18 18 18 18 18 18 18 18 18 18 17 17 17 17 17 17 17 17 18 18 19 19 18 18 19 19 19 20 20 20 20 20 20 20 20 19 18 18 17 17 17 17 16 16 16
26 26 25 26 26 25 25 26 27 27 26 26 29 29 29 30 30 29 27 25 26 25 22 24 26 23 21 23 26 26 25 24 23 22 21 20 19 19 18 18 18 17 17 17 17 17 17 17 17 17 16 16 16 16 16 17 17 17 17 18 18 18 19 18 18 19 19 19 20 20 20 20 20 20 20 19 19 18 18 17 17 17 16 16 16 16
26 26 27 26 25 25 26 27 28 27 27 29 30 29 29 30 30 29 27 25 25 23 21 23 24 22 21 22 24 25 24 23 22 21 20 19 18 18 18 18 17 17 17 17 17 17 17 16 16 16 16 16 16 16 16 17 17 17 18 18 18 18 18 18 18 19 19 19 19 20 20 20 20 19 19 19 19 18 18 17 17 17 16 16 16 16
26 27 27 26 25 26 27 27 28 27 28 29 29 28 27 28 29 28 27 25 23 21 22 23 24 23 21 21 23 24 24 24 23 20 19 18 17 17 17 17 17 17 17 16 16 17 16 16 16 16 16 16 16 16 16 16 17 17 17 17 18 18 18 18 18 18 19 19 19 20 20 20 19 19 19 19 19 19 18 18 18 17 16 16 16 16
26 25 26 26 26 27 27 27 28 28 28 29 29 27 25 24 25 25 24 24 22 21 22 24 25 24 21 21 24 25 25 25 23 21 19 18 17 17 16 16 16 16 16 16 16 16 16 16 16 16 16 16 16 16 16 16 16 16 16 17 17 17 17 17 17 18 18 19 19 19 19 19 19 19 19 19 19 19 18 18 18 17 16 16 16 16
24 24 25 26 26 27 27 26 26 27 28 28 27 25 22 21 22 21 21 22 21 21 23 25 25 23 22 23 24 24 24 24 23 21 20 18 17 16 16 16 16 16 15 15 15 15 16 16 16 16 16 16 16 16 16 15 15 16 16 16 16 16 16 16 16 17 17 18 18 18 18 19 19 18 18 18 18 19 19 18 18 18 17 16 16 16
22 24 25 25 25 27 26 25 24 24 26 27 24 23 22 21 21 21 21 21 21 22 23 26 25 22 22 23 24 22 21 22 21 20 18 17 16 15 15 15 15 15 15 15 15 15 16 16 16 16 16 16 16 16 15 15 15 15 16 16 16 16 16 16 16 16 16 17 17 17 18 18 18 18 18 18 17 18 18 18 18 18 18 17 16 17
21 22 24 24 25 26 26 27 26 25 26 26 26 25 23 22 21 21 21 21 21 22 23 25 24 21 21 21 21 20 19 19 18 17 17 16 15 15 15 15 15 15 15 15 15 15 16 16 16 16 16 16 16 16 15 15 15 15 15 16 16 16 16 16 16 16 16 16 16 17 17 17 18 18 18 17 17 17 17 18 17 17 17 17 17 17
21 21 24 25 26 26 26 27 28 27 25 26 28 26 23 24 23 21 21 22 21 21 22 22 21 20 20 19 19 20 19 18 17 16 16 15 15 15 15 15 15 15 16 15 15 15 16 16 16 16 16 16 16 16 16 16 16 15 15 16 16 16 16 16 15 15 15 15 15 16 16 16 17 17 17 17 17 17 17 16 16 16 17 17 17 17
21 21 25 25 25 26 26 27 29 27 25 25 25 24 25 28 27 22 21 22 22 21 21 22 20 18 18 19 19 20 19 18 17 17 16 16 16 15 15 15 15 15 15 15 15 16 16 16 16 16 16 16 16 15 15 16 16 15 15 15 16 16 16 16 15 15 14 14 14 15 15 15 16 16 17 17 17 17 16 15 15 16 16 17 17 18
22 22 24 25 24 26 27 27 28 28 27 25 23 25 28 29 27 24 21 21 21 21 21 22 20 18 19 19 19 20 19 18 18 17 16 16 16 16 15 15 15 15 15 15 16 16 16 16 16 16 16 16 16 15 15 16 16 16 15 16 16 16 16 15 15 15 14 14 14 14 14 14 15 16 17 17 16 16 16 15 15 16 16 16 17 17
24 22 23 25 24 25 27 26 25 27 28 27 26 28 27 24 23 23 22 21 21 21 21 21 20 20 20 19 19 19 19 17 17 17 16 16 16 16 15 15 15 15 14 14 15 15 16 16 15 15 15 16 16 15 15 16 16 16 16 16 16 15 15 14 14 14 14 15 14 14 14 14 14 15 16 16 16 15 16 16 16 16 16 16 16 17
25 22 21 24 25 26 26 24 23 24 27 28 27 28 27 25 23 23 22 22 21 21 21 21 21 21 22 21 20 20 19 17 17 17 16 16 15 15 15 15 14 14 14 14 14 15 16 15 15 15 15 15 15 15 15 15 16 16 16 16 16 15 14 14 13 14 14 15 14 14 14 14 14 15 15 15 15 15 16 16 16 16 16 16 16 17
25 23 21 23 25 25 23 23 24 24 25 25 25 25 25 25 25 24 23 23 22 21 21 21 21 21 21 22 22 22 20 19 18 17 16 15 15 15 14 14 14 14 14 14 14 15 15 15 15 15 15 15 15 15 15 16 16 16 16 16 17 16 14 14 13 13 14 14 14 14 14 14 14 14 14 15 15 15 15 16 16 16 16 16 16 16
24 22 21 22 23 22 23 25 26 26 26 26 25 24 25 25 24 23 22 23 23 22 21 21 21 20 19 20 22 22 21 20 18 17 15 15 14 14 14 14 14 14 14 14 14 15 15 15 15 15 15 15 16 15 16 16 16 16 15 16 17 16 14 14 14 14 14 14 14 14 14 14 14 13 14 14 14 15 15 15 16 16 16 16 16 16
24 23 21 21 22 23 25 26 26 27 28 27 26 26 27 26 24 21 21 22 22 22 22 22 21 20 19 19 21 22 21 20 18 17 15 14 14 14 14 14 14 14 14 14 14 15 15 15 15 15 16 16 16 16 16 16 16 16 16 16 18 16 14 14 14 15 15 15 14 14 14 14 14 13 13 13 13 14 14 14 15 16 16 16 16 17
24 23 21 21 23 25 26 27 27 28 28 26 25 27 27 27 25 24 24 23 22 22 22 22 20 18 18 19 21 21 21 20 18 17 16 14 14 14 14 14 13 13 14 14 14 14 15 15 15 15 16 16 16 16 15 16 16 16 15 16 16 16 15 14 15 16 16 16 15 14 14 14 14 13 13 13 13 13 13 13 14 15 16 16 17 17
22 22 22 21 21 22 23 24 24 25 26 25 25 27 28 27 27 26 25 24 22 22 22 21 20 18 17 19 20 19 19 18 17 16 15 14 14 14 13 13 13 13 13 13 14 14 14 15 15 15 15 16 16 15 15 16 16 16 15 15 15 15 15 15 15 16 16 16 15 15 15 14 13 13 13 13 13 12 13 13 13 14 15 16 16 17
23 23 22 21 20 20 20 21 22 22 24 25 26 26 27 27 27 25 23 22 21 21 22 21 19 16 16 17 18 18 17 16 15 15 15 14 13 13 13 13 13 13 13 13 13 14 14 15 15 15 15 15 15 15 15 15 15 15 15 15 15 15 15 15 15 16 16 16 15 15 14 14 14 13 13 13 13 12 12 13 13 13 14 15 15 16
23 23 22 20 21 21 21 21 24 24 23 23 25 25 26 27 27 25 23 22 21 22 22 21 18 15 15 15 16 16 15 15 14 14 14 13 13 12 12 12 12 13 13 13 13 14 14 14 15 15 15 15 15 15 15 15 15 15 15 15 15 15 15 14 14 15 16 16 16 15 14 14 14 14 14 13 13 13 12 12 12 13 14 15 15 16
23 21 20 20 21 23 23 24 25 25 23 23 24 25 26 27 27 25 23 22 23 22 21 19 17 15 15 15 14 14 14 14 13 13 13 13 12 12 12 12 12 13 13 13 13 13 14 14 15 15 15 15 15 15 15 15 15 15 15 15 15 15 14 14 15 15 15 16 15 15 15 14 14 14 14 13 13 12 12 12 12 12 12 13 14 15
23 20 20 21 21 23 24 25 25 25 25 25 24 24 25 25 25 24 23 24 23 22 20 19 18 17 15 14 14 13 13 13 13 13 12 12 12 12 12 12 13 13 13 13 13 13 14 14 14 15 14 14 14 14 14 15 15 15 15 15 14 14 15 15 15 15 15 15 15 15 15 14 14 14 14 13 12 12 12 12 12 11 11 12 12 13
22 20 21 21 21 22 23 24 25 25 25 24 24 24 24 25 25 24 24 24 23 21 21 20 18 17 15 14 13 13 12 12 12 12 12 12 12 12 12 12 13 13 13 13 13 13 13 13 14 14 14 14 14 14 14 14 15 14 14 14 14 14 15 15 15 15 14 14 14 14 14 14 14 14 13 13 12 12 12 11 11 11 10 10 11 12
21 19 21 21 21 21 22 23 24 24 23 23 23 23 23 24 24 23 22 22 22 20 19 18 15 13 13 13 12 11 11 11 11 11 11 12 12 12 12 12 13 13 13 13 13 12 13 13 13 12 13 13 13 14 14 14 14 14 14 14 14 14 14 14 14 14 14 14 14 14 14 14 13 13 13 12 12 11 11 11 10 10 10 9 10 10
21 20 20 20 20 20 21 22 22 22 21 21 20 21 21 22 22 21 21 21 21 19 17 16 14 11 11 11 11 10 10 10 10 10 10 11 11 11 11 12 12 12 12 12 12 12 12 13 12 12 12 13 13 13 13 14 14 14 14 14 14 14 14 14 14 14 14 14 14 13 13 13 13 13 12 12 11 11 11 10 10 9 9 9 9 8
21 20 19 21 20 19 21 22 20 20 19 18 17 17 18 20 20 20 19 20 20 19 18 18 16 12 10 11 10 10 10 10 10 10 10 10 10 11 11 11 11 11 11 11 12 12 12 12 12 12 12 13 13 13 13 13 14 14 14 14 14 14 14 14 14 14 14 13 13 13 13 13 12 12 11 11 11 10 10 10 9 9 8 8 8 8
21 19 20 22 20 19 21 21 19 19 19 16 15 15 18 20 20 18 17 17 17 17 17 16 14 11 11 11 10 10 9 9 9 9 9 10 10 10 10 11 11 11 11 11 11 12 12 12 12 12 12 12 13 13 13 13 13 14 14 14 14 13 13 14 14 14 13 12 12 12 12 12 12 12 11 11 10 10 10 9 9 8 8 8 8 7
22 20 21 21 20 20 20 20 19 19 17 14 15 16 18 19 18 16 16 16 16 15 14 13 12 11 11 11 9 9 8 8 8 8 9 9 9 9 9 10 11 11 10 11 11 11 11 11 11 11 12 12 13 13 13 13 13 14 14 14 14 13 13 14 14 13 12 12 12 11 11 11 11 11 11 11 10 10 9 9 8 8 7 7 7 7
22 22 21 20 19 19 19 19 18 16 13 14 15 16 17 17 17 16 14 14 15 14 13 12 11 10 10 9 8 8 7 7 8 7 8 8 9 9 9 9 10 10 10 11 11 11 12 11 11 12 12 13 13 14 13 13 14 14 14 14 14 13 13 14 14 13 12 12 11 11 11 11 10 10 11 11 10 10 9 8 8 7 7 7 7 6
23 22 21 19 19 19 19 17 15 13 13 14 14 16 16 16 17 17 13 12 14 14 12 11 10 9 8 8 7 7 8 8 7 6 7 8 8 9 9 10 10 11 11 11 11 11 12 12 12 12 13 12 12 12 12 13 13 14 14 14 14 13 13 13 13 12 12 11 10 10 10 10 9 9 10 10 10 10 9 8 8 7 7 7 7 6
23 22 21 19 19 20 19 16 15 15 16 15 15 16 17 17 17 17 14 12 13 13 12 10 9 8 8 8 8 8 9 9 7 6 7 7 8 8 9 9 10 10 11 11 11 11 11 12 12 12 12 12 12 12 12 12 12 13 13 13 13 13 13 13 12 12 11 10 10 10 10 9 9 9 10 10 10 9 9 9 8 8 7 7 7 6
22 22 22 21 20 20 19 18 18 17 16 16 16 16 17 17 18 18 17 14 12 12 12 11 10 9 9 9 8 9 11 10 7 6 7 8 8 9 9 9 10 10 10 10 11 11 11 11 11 11 11 11 11 11 11 11 11 11 12 12 12 13 13 12 12 11 10 10 10 10 9 9 9 9 9 10 9 9 9 9 9 8 8 7 7 6
19 19 21 21 20 20 19 19 17 16 15 16 17 17 18 18 17 18 18 16 12 12 12 11 10 10 10 9 9 11 12 10 8 7 8 8 8 9 9 9 10 10 10 10 11 11 11 11 11 11 11 11 11 11 11 11 11 11 11 11 11 12 12 12 12 11 10 10 10 10 9 9 9 9 9 9 9 9 9 9 9 9 9 8 8 7
18 19 20 21 20 20 20 18 16 14 15 16 17 17 18 17 17 18 17 15 13 12 12 12 11 11 10 10 11 11 11 10 9 8 8 8 8 9 9 9 10 10 10 10 10 11 11 11 11 11 11 11 11 11 11 11 11 11 10 11 11 11 12 12 11 11 10 10 10 10 10 9 9 9 9 9 9 9 10 9 9 9 9 8 8 7
19 20 21 20 20 21 19 17 15 14 14 16 17 17 17 16 17 16 15 14 13 13 12 12 12 11 11 11 11 10 9 9 8 8 8 8 9 9 9 10 10 10 10 10 10 11 11 11 11 11 11 11 11 11 11 11 11 11 11 10 10 10 11 11 11 11 11 10 10 10 10 9 9 9 9 8 9 9 9 9 9 9 9 9 8 8
18 19 20 19 19 20 19 16 16 15 14 15 16 16 16 16 15 14 13 13 13 13 13 12 12 11 11 10 10 9 9 8 8 8 8 9 9 9 10 10 10 10 10 11 11 11 11 11 11 11 11 11 11 12 11 11 11 11 11 11 10 10 10 10 11 11 11 11 10 10 10 10 9 9 9 9 9 8 8 8 8 9 9 9 9 8
17 18 20 17 16 19 19 16 15 15 15 15 16 15 15 15 15 14 13 13 12 12 12 11 10 11 11 10 9 9 9 8 8 8 8 8 9 9 9 10 10 10 11 11 11 11 11 11 11 11 11 11 11 11 11 11 11 11 11 11 11 10 10 10 10 10 10 10 10 10 10 10 10 9 9 9 9 9 9 8 8 8 9 9 9 8
16 17 17 15 13 15 15 13 13 14 14 15 15 15 15 15 15 14 13 12 12 11 11 10 10 10 10 10 9 9 8 8 8 8 8 8 9 9 9 10 10 10 11 11 11 11 11 11 11 11 11 11 11 11 11 11 11 11 11 11 11 11 10 10 10 10 10 10 10 10 10 10 9 9 9 9 9 9 9 8 8 8 8 8 8 8
16 17 16 14 12 12 12 12 13 13 13 14 15 14 15 14 14 14 13 12 12 11 10 10 10 9 9 9 9 8 8 8 8 8 8 9 9 9 9 9 10 10 11 11 11 11 11 11 11 11 11 11 11 11 11 11 12 12 12 11 11 11 10 10 10 10 10 10 10 10 10 9 9 9 9 9 9 9 9 8 7 7 7 7 8 7
16 17 17 15 14 14 12 11 12 13 13 14 14 14 14 14 13 13 13 12 12 11 10 10 9 9 9 9 8 8 8 8 8 8 8 9 9 9 10 10 10 11 11 11 11 11 11 11 11 11 11 11 11 11 11 12 12 12 11 11 11 11 11 10 10 10 10 9 9 9 9 9 9 9 8 8 8 8 8 8 7 6 5 6 6 6
17 18 18 15 14 13 12 11 12 13 13 14 14 13 13 13 13 13 12 11 11 10 10 10 9 9 9 9 8 8 8 8 9 8 8 9 10 10 10 11 11 11 11 11 11 11 11 11 11 11 11 11 11 11 12 12 12 12 12 12 11 11 11 10 10 10 10 10 9 9 9 9 9 9 8 7 7 7 8 7 7 6 5 4 5 5
18 18 17 14 11 10 11 11 12 12 12 13 13 13 13 13 13 12 12 11 11 10 10 10 10 10 9 9 9 9 9 9 10 10 10 10 11 11 11 10 10 10 11 11 11 11 11 11 11 11 11 11 12 12 12 12 12 12 12 12 12 11 11 11 11 10 10 10 10 9 9 9 9 9 9 7 6 6 6 7 7 6 5 4 5 5
18 16 15 13 11 10 10 11 12 12 11 11 12 12 12 12 12 12 11 11 11 10 10 10 10 10 10 10 10 10 10 10 11 11 11 11 11 11 10 10 10 11 10 10 11 11 11 11 11 11 11 11 12 12 12 12 12 11 11 11 11 11 11 11 11 11 11 10 10 10 10 10 9 9 9 8 7 7 6 6 6 6 5 4 5 5
16 16 15 15 14 13 12 13 13 12 11 11 11 12 12 12 12 11 11 11 10 11 11 10 10 10 10 10 10 11 11 11 11 11 11 11 10 10 10 11 11 11 11 11 11 11 11 11 12 12 12 12 11 11 11 12 12 11 11 11 11 11 11 11 11 11 11 11 10 10 10 10 10 9 9 9 9 8 7 6 5 5 5 5 5 5
Height
750 758 758 755 750 745 743 742 739 733 729 733 739 739 735 736 734 728 731 731 732 743 747 740 745 758 761 760 759 757 757 758 761 763 763 766 768 769 772 774 776 780 782 783 787 789 790 791 792 794 796 796 798 799 799 799 799 800 800 801 802 802 803 804 805 806 805 805 806 806 806 806 806 807 807 808 808 808 810 811 812 814 815 814 812 811
749 756 750 744 741 739 739 739 736 732 729 730 735 738 735 735 731 724 727 730 730 742 745 737 747 762 763 763 761 760 764 765 764 766 766 765 767 768 772 777 778 780 782 784 788 789 790 793 794 796 797 798 800 800 801 801 801 801 801 802 802 803 803 804 804 805 805 805 806 806 805 805 805 805 806 806 806 807 808 809 810 812 812 811 810 808
751 750 741 737 736 735 736 736 735 735 733 733 733 736 737 732 728 729 731 731 732 741 740 737 755 767 763 763 764 763 767 768 766 766 767 767 770 773 777 780 781 784 786 787 790 791 793 795 796 797 799 800 801 802 803 803 803 803 803 803 803 803 803 804 804 804 805 805 805 805 804 804 804 804 804 804 804 805 807 806 807 809 809 809 808 806
751 743 734 733 734 734 736 736 736 737 737 737 733 734 735 728 730 740 741 736 733 735 733 739 758 768 765 766 766 766 768 769 769 769 769 771 774 777 781 784 786 788 790 791 793 794 795 797 798 800 801 802 803 803 804 804 804 804 804 804 804 804 804 804 805 804 804 804 804 804 804 803 804 803 803 803 802 803 804 804 804 806 807 807 807 805
741 733 729 731 732 732 736 738 737 739 742 738 731 729 730 723 725 737 742 740 737 736 733 744 768 774 768 771 771 767 768 770 772 774 776 776 777 779 784 788 790 791 792 794 796 797 798 799 801 802 802 803 804 805 805 806 806 805 805 805 805 805 805 805 805 804 804 804 804 804 803 803 803 803 802 801 801 801 801 802 802 803 804 804 804 804
731 725 725 729 732 731 735 737 735 738 744 740 731 725 721 718 723 734 742 743 750 752 737 743 779 786 767 767 772 768 769 772 774 777 779 781 781 783 788 791 793 794 796 797 798 799 800 801 803 804 804 805 805 806 807 807 807 807 806 806 805 805 805 805 805 805 805 804 804 803 803 803 802 801 801 800 800 800 799 799 799 800 801 800 800 800
724 719 721 728 731 732 734 734 731 734 741 741 732 722 716 715 723 733 740 746 757 759 740 738 769 784 771 766 768 767 770 773 775 779 781 783 786 788 792 796 797 798 800 800 800 801 802 803 804 805 806 806 807 807 808 808 807 807 807 806 806 806 805 805 805 805 805 804 804 803 803 802 802 800 800 799 799 799 798 797 797 797 797 797 797 797
718 718 723 726 727 731 733 733 730 730 738 736 724 721 719 716 723 730 737 747 748 745 743 740 749 769 779 772 763 765 771 775 778 782 786 787 790 795 798 801 801 801 803 802 803 803 804 805 806 807 808 808 809 809 809 809 808 808 808 807 806 806 806 805 806 805 805 805 804 803 802 801 801 800 799 799 798 797 796 795 795 794 794 794 794 794
715 719 721 722 726 731 730 728 725 728 734 726 716 723 722 715 721 730 737 742 738 742 756 750 741 763 783 771 760 766 772 779 785 786 791 795 797 801 803 803 804 804 805 805 806 807 807 808 809 810 811 811 811 811 810 810 809 809 808 808 807 807 807 806 806 805 805 805 803 803 802 800 800 799 798 798 796 795 794 793 793 792 792 792 792 793
715 715 714 721 729 730 727 723 721 727 730 717 713 725 725 716 720 731 738 737 737 750 761 752 743 761 783 777 765 769 773 780 788 791 796 800 803 805 804 805 806 806 807 807 808 809 810 811 812 812 813 813 813 812 812 811 810 811 810 809 808 807 807 806 806 806 805 804 803 802 801 800 800 799 797 797 795 794 793 792 792 791 790 790 791 791
710 710 710 720 726 721 721 720 718 724 723 712 716 728 731 727 725 730 732 731 747 764 757 745 740 750 779 785 769 766 769 773 784 793 798 802 804 806 807 807 808 808 810 810 811 812 812 813 813 814 814 814 815 814 814 813 812 812 811 810 809 808 808 807 806 806 805 804 803 801 801 800 800 799 797 796 795 794 793 792 791 790 789 788 788 789
711 717 716 718 718 715 718 720 717 720 717 716 722 729 739 743 738 739 737 738 758 767 749 737 736 742 770 782 765 760 764 766 779 790 796 802 805 808 809 809 810 811 812 813 813 814 814 815 815 814 815 815 815 815 814 815 814 813 812 811 810 809 809 808 807 806 805 803 802 801 800 800 799 799 797 796 795 794 794 793 792 790 789 787 786 786
716 720 718 717 716 713 720 722 722 723 717 722 729 734 747 757 759 763 757 753 757 752 736 730 734 741 757 765 761 766 770 769 777 786 793 801 806 809 811 811 813 813 814 814 815 815 815 815 815 815 816 816 816 816 815 815 815 813 813 812 811 811 810 809 808 807 806 804 803 802 800 799 798 798 797 796 796 795 795 794 793 791 790 787 785 783
723 720 715 720 718 712 717 719 727 730 720 724 732 737 747 756 772 778 765 760 757 744 731 722 731 748 757 761 765 774 781 780 784 792 797 804 807 811 813 813 815 815 815 817 816 816 816 815 816 816 816 816 816 817 816 816 815 814 814 813 812 811 810 810 809 808 807 805 804 802 800 799 798 797 797 796 795 795 794 793 792 792 791 789 786 783
730 731 717 717 716 712 713 710 716 723 720 724 723 726 735 740 757 769 760 759 755 746 737 723 735 760 769 776 777 779 787 790 795 801 803 808 810 811 814 814 816 816 816 818 817 817 818 816 816 816 816 817 817 817 817 816 816 815 814 813 812 811 811 810 810 809 808 806 804 802 801 799 798 797 796 795 794 793 793 791 790 791 791 790 788 785
725 729 711 707 709 708 711 704 704 715 724 726 718 721 730 723 732 750 749 744 743 752 751 741 758 778 778 784 783 781 790 793 799 806 806 811 812 811 815 815 815 817 817 819 819 818 818 817 817 817 817 818 817 817 817 816 816 815 814 814 812 812 811 810 810 809 808 806 804 802 801 799 798 797 796 795 794 792 792 792 790 790 791 791 789 786
720 722 705 706 710 706 709 704 701 713 723 725 723 724 719 706 715 739 749 741 742 761 761 752 779 798 790 792 789 783 792 796 800 806 807 811 812 812 816 816 817 819 818 819 819 818 819 818 818 818 818 818 818 818 818 816 816 815 815 814 813 812 811 810 810 809 808 806 804 802 801 800 798 797 796 794 793 792 791 792 791 791 791 790 789 787
710 715 703 706 714 708 707 706 702 706 712 721 727 719 709 708 713 726 747 755 755 767 763 754 781 800 792 795 793 786 795 801 800 804 808 810 812 813 815 816 818 819 820 820 819 819 820 819 820 820 819 819 819 819 818 817 817 816 816 814 813 812 811 811 810 809 808 806 804 803 801 800 799 797 796 794 793 792 791 791 792 791 790 789 788 787
699 713 710 705 712 708 706 714 715 709 703 709 715 707 709 725 728 726 742 758 762 769 768 763 776 786 780 786 792 787 793 802 803 805 809 811 812 814 815 816 819 820 821 822 821 821 821 820 821 821 820 820 820 820 819 818 817 817 816 814 814 814 812 812 811 809 808 806 804 803 802 800 799 797 796 794 793 792 791 791 791 790 789 789 788 787
693 713 719 706 703 705 709 719 722 716 708 705 707 706 707 715 719 722 730 741 753 763 768 769 769 767 761 767 778 780 784 796 802 804 808 811 813 815 816 818 820 821 823 824 823 823 822 822 822 822 821 821 820 821 820 819 818 817 817 815 815 815 814 813 812 810 808 806 805 804 802 801 799 797 796 794 793 792 790 790 789 788 788 787 787 786
695 711 723 712 703 709 718 718 713 712 714 711 709 711 712 709 709 717 721 725 736 748 761 770 768 762 758 757 762 770 778 789 796 801 808 812 814 816 818 820 821 822 824 824 824 824 823 823 823 822 822 821 820 820 819 819 819 817 817 816 815 815 814 813 811 809 808 806 805 804 802 801 799 798 796 794 793 792 790 790 789 787 786 785 786 786
701 711 724 720 711 713 714 707 702 704 707 708 709 709 711 711 715 728 734 725 721 730 744 757 766 771 772 767 762 765 775 784 792 801 808 812 814 817 819 820 822 823 824 824 824 825 824 824 823 822 821 821 820 820 820 819 819 818 818 817 815 814 814 813 811 809 808 807 806 804 803 801 800 798 797 795 794 792 791 789 788 787 785 784 784 785
698 708 720 719 708 705 703 699 699 699 697 705 711 707 703 706 714 731 740 730 722 724 723 733 762 780 776 771 768 767 772 782 792 800 807 812 815 818 819 821 822 824 824 825 826 826 826 825 824 823 821 821 821 821 821 820 819 819 819 817 815 814 814 813 811 810 808 807 807 805 803 802 800 799 797 795 794 792 791 789 788 786 785 783 783 782
699 707 716 715 702 696 696 694 696 696 696 707 712 704 700 703 708 714 718 719 726 730 722 733 769 790 781 771 770 771 776 784 793 800 806 812 816 818 820 822 824 825 826 827 828 827 827 826 825 824 822 822 822 822 822 821 820 820 820 819 817 815 815 813 811 810 809 808 807 806 804 803 801 799 798 796 794 793 791 789 788 786 785 783 781 780
705 708 712 718 717 716 717 711 708 709 705 705 707 704 699 700 705 709 709 714 728 732 727 741 774 792 787 776 772 777 784 790 797 803 806 811 816 819 822 824 826 827 828 828 829 828 828 827 826 825 824 824 824 824 824 823 822 821 821 820 818 817 815 814 812 811 809 809 808 806 805 803 801 800 798 797 795 793 791 789 787 785 784 782 780 778
703 704 708 719 723 729 737 729 718 716 709 702 702 704 702 699 702 712 717 725 738 735 726 740 772 792 791 785 782 786 791 797 803 807 809 812 817 821 824 827 828 829 830 830 830 830 829 828 827 826 826 826 826 826 826 825 824 823 822 821 819 818 816 815 814 812 811 810 809 808 806 804 802 800 799 797 795 793 791 789 787 785 783 781 780 778
699 703 709 717 714 712 719 715 704 706 711 708 703 701 703 700 700 710 718 726 735 734 728 740 768 790 795 792 793 796 798 803 808 810 812 816 820 824 826 829 830 830 831 831 830 830 829 828 829 828 828 828 828 828 827 826 825 824 823 822 820 819 817 816 816 814 812 811 809 809 807 804 803 801 799 798 796 794 792 790 787 785 783 782 780 778
702 713 717 718 712 702 700 699 696 700 707 708 704 702 703 701 700 708 718 722 725 731 742 755 767 782 793 795 798 803 804 807 810 812 815 819 822 826 828 829 830 830 831 832 832 831 830 830 830 829 830 830 830 830 829 828 827 826 824 823 821 820 819 818 817 815 813 812 811 809 808 806 804 802 801 799 797 796 794 791 789 786 784 782 781 779
702 717 717 717 714 704 698 696 695 697 700 702 706 708 708 707 708 713 717 722 727 736 751 763 766 774 788 796 801 805 807 810 813 815 818 821 823 826 828 829 830 830 831 832 832 832 832 831 831 831 832 832 832 831 830 829 828 827 826 824 823 822 821 819 818 817 815 814 812 811 809 807 805 803 802 801 799 797 795 793 790 788 785 783 781 779
704 718 715 712 716 712 705 701 698 699 701 704 709 712 713 713 715 720 723 726 733 741 750 759 768 779 791 798 803 808 811 813 817 819 820 823 824 826 828 830 831 831 832 833 833 834 834 834 835 835 835 834 833 832 832 830 829 828 827 826 825 823 822 821 819 818 817 816 815 813 811 809 807 805 804 802 800 799 796 794 792 789 787 784 782 780
711 722 714 710 720 722 712 707 707 707 709 714 719 721 722 722 722 731 738 738 742 752 759 767 782 796 801 804 808 814 817 818 821 823 823 824 826 828 830 831 831 832 833 834 835 836 837 837 838 838 837 836 836 834 833 832 830 829 828 827 826 825 823 822 821 820 819 817 816 815 813 811 809 807 805 804 802 800 798 796 793 791 788 785 783 780
710 719 717 716 729 732 719 713 718 721 725 732 737 738 736 733 734 741 745 741 744 760 771 775 787 803 808 809 813 817 820 822 825 826 827 828 829 831 832 833 834 835 835 836 837 837 838 839 839 840 839 838 837 836 835 833 832 830 830 828 828 827 826 824 823 821 820 819 818 817 815 813 811 809 808 806 804 802 800 798 795 793 790 788 785 782
709 720 720 715 729 736 721 717 727 735 744 753 757 758 752 743 743 748 750 749 749 757 764 765 778 799 808 809 814 819 822 825 827 829 830 832 832 833 834 835 836 838 838 838 838 839 840 841 841 841 840 839 839 838 836 835 833 832 831 830 829 828 827 826 824 823 822 821 820 819 817 815 813 811 810 808 806 805 802 800 798 795 793 790 788 785
708 721 717 709 724 733 721 723 735 740 750 764 769 765 755 746 748 755 761 765 764 764 767 770 784 800 806 807 814 820 824 827 829 830 832 834 835 836 837 837 837 839 840 840 840 841 842 842 843 842 842 841 840 839 838 837 835 834 833 832 831 830 829 827 825 825 825 824 822 821 819 817 815 814 812 810 809 807 805 802 800 798 795 792 790 787
704 714 715 711 721 729 725 730 742 749 758 768 769 762 753 749 754 762 767 770 772 776 781 786 795 802 805 811 818 823 828 830 831 834 836 837 838 839 840 841 840 841 842 842 842 843 844 844 844 844 843 842 840 839 839 838 836 835 834 833 832 831 830 829 827 827 827 826 825 823 821 819 818 816 814 812 811 809 807 805 802 800 798 795 793 790
700 705 713 720 727 735 735 736 747 763 772 771 765 761 760 760 761 766 777 781 779 782 786 791 800 807 811 819 824 826 831 833 835 839 841 840 841 842 842 843 843 843 843 843 844 844 844 845 845 844 843 842 841 840 840 839 838 837 836 835 834 833 832 830 829 830 829 828 827 826 824 822 820 818 816 814 813 811 809 807 805 803 801 798 796 794
696 701 713 727 733 733 738 749 762 773 774 771 769 764 760 762 757 759 780 794 787 785 792 799 806 813 818 823 826 829 830 832 838 845 845 843 844 844 844 844 844 845 844 844 845 845 845 845 845 844 844 844 844 843 842 842 840 838 837 836 836 836 835 833 832 832 831 830 830 828 826 824 823 821 819 817 815 814 812 810 808 806 804 802 799 797
694 700 709 726 731 725 733 753 764 765 763 764 766 761 755 759 756 755 774 795 793 790 798 804 809 815 820 822 826 827 824 828 841 848 847 846 846 846 847 846 846 846 846 846 847 847 847 847 846 847 847 847 846 846 845 844 842 840 839 838 837 837 836 835 835 835 834 833 832 830 829 827 825 824 822 820 818 817 815 813 812 809 807 805 803 801
699 703 706 717 727 727 733 743 748 755 761 758 757 759 757 756 755 754 765 785 795 795 797 803 809 814 817 820 823 821 818 827 844 849 846 847 847 847 848 847 847 848 848 848 849 848 849 849 848 849 849 848 848 848 847 846 845 844 844 842 841 840 838 838 837 837 837 836 834 833 831 830 828 826 824 823 821 820 818 816 814 813 810 808 806 804
714 714 710 713 722 727 733 741 750 762 765 758 755 758 755 754 758 759 763 776 790 796 797 802 808 811 815 819 821 818 814 823 838 844 844 846 847 847 848 848 848 849 849 850 850 850 850 850 850 850 850 850 850 849 848 848 848 847 847 846 844 842 840 840 840 839 839 838 836 836 834 832 831 829 827 826 824 822 821 818 817 815 813 811 809 807
725 718 712 715 721 724 730 742 757 767 766 760 758 757 754 758 762 763 765 774 786 794 797 801 805 810 814 816 817 817 816 821 831 839 843 846 847 848 849 849 849 850 850 851 852 851 852 852 851 852 852 851 851 850 850 850 849 849 849 848 847 845 843 842 842 841 841 840 839 838 836 835 834 832 830 829 826 824 823 821 819 818 816 814 812 810
721 715 712 715 718 720 730 746 760 769 770 764 760 759 760 763 766 768 773 780 786 792 796 799 804 809 814 816 818 822 825 828 835 840 843 846 847 849 850 850 850 851 852 852 853 852 853 853 853 853 853 852 852 852 851 851 850 850 850 850 849 848 846 845 843 842 842 841 841 840 839 837 836 834 833 831 829 827 825 823 822 820 818 816 815 813
724 720 716 722 723 718 731 751 760 765 770 766 763 764 766 766 769 775 780 784 789 794 797 801 807 811 815 819 822 826 829 832 837 841 843 846 848 849 850 851 851 852 852 852 853 853 853 853 854 854 854 853 853 853 852 852 852 851 851 850 850 850 849 847 846 844 843 843 842 841 840 839 838 836 835 834 832 831 829 827 825 822 820 819 817 816
730 726 721 734 739 727 732 755 763 762 765 765 764 767 768 768 772 777 781 787 794 798 801 806 812 814 816 820 824 828 832 835 839 842 845 847 849 850 851 852 852 853 852 853 854 854 854 854 855 855 855 855 855 854 854 853 853 853 852 851 851 851 851 850 848 847 846 845 844 843 842 841 840 839 837 836 834 833 831 830 828 825 823 821 819 818
735 734 732 745 755 749 751 767 772 768 768 767 767 769 771 773 776 779 783 790 796 801 806 810 814 817 819 823 826 830 834 837 840 844 846 848 850 851 852 853 854 854 854 854 855 855 855 855 856 856 856 856 856 856 856 855 854 854 852 852 852 852 851 851 850 849 848 847 846 845 844 843 843 842 841 838 836 835 833 833 831 829 827 824 822 821
737 737 737 749 762 765 769 775 774 773 774 772 771 774 775 777 781 784 788 793 797 802 808 812 815 819 823 826 829 832 836 839 841 845 847 849 851 852 853 855 855 855 855 855 855 856 856 857 858 857 857 858 858 857 857 856 855 854 853 853 853 852 852 852 851 851 850 849 849 848 847 846 845 844 843 842 840 838 837 836 835 834 832 829 827 825
738 734 737 748 756 761 772 781 778 776 778 775 775 779 779 781 786 789 792 796 800 804 810 814 818 823 825 828 830 833 837 840 842 845 848 850 852 853 854 855 855 855 855 856 856 857 857 858 859 859 859 859 859 858 857 856 856 855 855 854 854 853 853 853 853 852 852 851 850 849 849 848 847 846 845 844 843 842 840 840 839 838 836 834 832 830
736 732 737 749 758 763 775 784 780 777 779 778 779 782 783 786 790 793 796 801 804 809 814 818 821 824 827 830 833 835 839 842 843 846 848 850 852 853 853 854 855 856 857 857 858 858 859 859 860 861 860 860 860 859 858 857 857 857 856 855 854 854 854 854 854 853 853 853 852 851 850 850 848 847 847 847 846 845 843 842 842 841 839 838 837 835
733 735 743 759 774 782 784 784 781 782 785 784 783 786 787 790 793 796 800 804 807 812 816 819 823 826 828 831 835 836 839 841 843 845 847 849 850 852 853 856 857 858 859 860 860 860 860 861 861 861 861 861 860 859 859 859 858 858 857 856 855 855 855 855 854 854 854 854 853 853 852 851 850 849 848 848 848 847 846 845 844 844 843 841 840 838
737 744 753 764 776 783 783 781 780 783 788 789 789 790 792 794 796 799 803 807 810 813 816 819 824 828 830 833 836 837 838 841 843 845 847 849 851 853 855 857 858 859 860 861 861 862 861 861 862 862 862 862 861 860 860 860 859 859 859 858 857 856 856 855 854 854 854 854 854 854 853 852 851 850 849 849 849 848 848 847 846 846 845 844 842 840
745 749 753 756 760 767 772 775 776 779 787 792 793 794 796 798 800 803 806 809 812 815 818 821 824 828 831 835 836 838 839 841 844 846 848 850 853 854 856 857 857 858 859 860 861 862 862 863 862 861 861 862 862 862 861 860 860 860 860 860 859 859 858 857 856 854 854 854 854 854 853 852 852 851 851 850 850 849 849 848 848 847 846 845 844 843
Wind_Speed
12 11 12 13 14 17 17 18 18 15 14 14 15 14 12 12 11 13 16 20 20 14 14 19 13 12 11 11 11 8 7 7 9 10 9 11 11 10 10 8 9 9 10 10 8 6 6 7 9 10 10 9 8 7 6 5 4 3 3 3 3 3 2 1 1 1 2 3 4 5 5 6 7 7 8 10 13 15 14 13 13 14 17 15 13 13
13 13 15 18 18 18 18 18 20 17 13 12 14 13 11 11 11 11 15 20 20 13 14 18 13 12 11 10 11 9 8 7 8 9 9 11 11 9 9 9 9 9 9 9 8 6 7 9 11 12 10 10 9 9 9 8 8 7 6 5 4 3 3 2 2 2 3 4 5 6 7 8 8 8 10 11 13 14 15 16 15 15 17 15 13 15
13 14 18 20 17 17 18 18 20 18 13 9 11 12 10 11 10 9 12 18 18 11 13 18 14 10 10 10 10 10 9 6 6 6 6 8 10 8 8 8 8 8 8 8 8 8 11 12 12 12 10 9 10 9 9 9 9 8 7 7 6 4 3 2 2 2 3 4 6 6 8 10 10 10 11 12 14 14 14 15 16 17 17 14 15 17
12 14 18 19 18 19 18 18 19 15 11 9 11 11 9 13 13 9 12 17 17 11 10 16 13 8 10 9 9 10 10 9 8 8 6 6 8 8 8 7 6 7 7 7 8 10 12 13 13 12 11 10 9 9 9 8 7 7 7 6 5 5 4 3 2 1 2 3 3 4 6 8 9 9 11 12 14 15 15 16 18 19 19 16 17 18
13 14 18 19 19 20 18 18 19 12 9 12 13 12 10 16 15 10 12 16 15 12 11 14 10 6 9 10 9 9 11 11 10 10 9 8 8 8 8 8 6 7 8 8 9 10 12 13 14 13 11 10 10 10 10 9 7 7 6 5 4 3 2 2 1 1 3 3 4 4 5 6 8 9 10 11 12 13 15 17 19 20 21 19 19 19
14 15 18 20 19 20 18 17 19 13 9 12 14 14 13 15 15 14 16 15 12 11 13 16 10 6 11 12 10 10 11 12 11 11 11 10 9 9 9 9 8 9 10 10 10 11 12 13 14 13 12 11 11 10 9 8 7 7 6 5 4 3 2 1 1 2 4 5 6 6 6 7 8 8 9 10 11 11 12 15 16 18 20 20 20 20
12 16 18 20 20 22 19 16 18 16 10 9 12 16 16 15 16 18 19 14 10 10 12 15 10 7 10 11 11 12 12 13 11 11 11 10 10 9 9 10 10 10 10 10 11 11 12 13 13 12 12 12 11 9 8 7 7 7 7 5 4 3 2 2 0 2 3 5 6 6 7 8 9 9 9 9 9 9 12 13 14 16 19 19 19 19
13 18 19 21 21 19 16 13 17 19 12 8 13 17 16 15 17 17 18 13 9 10 13 16 14 8 8 10 13 14 14 14 12 11 11 10 11 11 10 10 11 11 10 10 11 11 12 14 14 13 13 13 12 11 10 9 8 7 6 5 4 4 2 2 0 2 3 4 5 7 8 8 8 9 9 8 7 9 11 11 12 15 18 18 18 18
13 17 20 21 19 14 14 14 17 20 14 9 15 15 14 14 17 15 14 13 11 10 11 16 16 9 7 10 13 15 15 14 14 13 13 12 13 12 11 11 11 11 11 11 11 11 13 14 15 14 13 13 13 13 12 11 9 8 7 6 6 5 3 2 1 2 3 4 6 7 8 8 7 8 8 7 7 8 9 9 11 13 15 16 17 17
13 15 17 17 14 12 15 16 17 19 16 11 16 16 11 10 14 15 13 11 11 11 10 15 17 10 6 9 11 13 14 14 13 12 12 12 12 11 11 11 10 10 10 11 11 12 14 14 14 13 13 13 12 12 11 10 10 9 8 8 7 6 5 3 3 5 6 6 7 8 8 7 7 7 8 7 7 7 8 8 9 10 12 14 15 16
13 12 14 14 13 13 15 16 16 19 19 14 14 16 12 8 10 12 11 10 10 9 11 16 19 14 7 8 11 11 12 14 13 11 11 12 11 11 10 9 9 9 9 9 10 12 14 13 13 13 13 12 12 11 11 10 10 10 9 9 8 7 7 7 6 7 9 8 8 9 9 8 7 7 8 8 8 7 7 8 8 9 11 13 15 16
13 12 12 13 15 14 14 15 15 18 21 14 11 13 11 8 9 10 10 11 10 10 12 16 21 18 9 7 10 10 12 14 13 12 14 13 12 10 9 9 9 8 8 9 9 10 11 12 12 12 12 11 11 11 11 10 10 9 10 9 9 8 9 9 9 10 11 10 10 10 11 10 7 8 10 10 10 8 7 8 8 9 11 13 15 16
13 13 15 14 16 16 15 14 13 15 18 13 10 12 11 9 8 9 10 11 10 10 12 15 19 16 8 9 12 12 11 12 11 11 13 13 12 11 9 9 9 8 8 8 8 8 8 10 11 11 11 11 11 11 11 11 10 9 9 10 9 9 9 9 10 10 11 11 12 12 13 12 9 8 10 10 11 10 9 10 9 11 14 13 14 16
11 14 18 16 15 16 16 13 12 13 15 14 13 12 11 10 9 10 11 10 10 10 13 17 18 10 7 10 13 15 13 11 13 12 11 12 12 12 10 9 9 8 9 8 8 8 8 9 11 11 11 11 11 11 11 11 11 10 10 10 10 10 10 10 10 10 10 11 12 12 12 13 12 10 10 11 12 12 10 11 11 13 16 14 14 17
13 12 16 17 13 16 19 16 14 14 14 14 13 13 11 9 9 9 9 9 11 9 10 15 13 7 7 10 12 16 16 14 14 12 11 12 11 11 10 10 9 9 9 8 8 9 9 10 11 10 11 11 11 11 11 11 11 11 10 11 11 11 11 11 11 10 10 11 12 12 12 13 14 13 11 11 13 14 12 13 15 16 17 16 14 16
15 11 15 18 14 18 21 17 16 16 13 12 12 12 12 10 9 7 5 5 8 7 6 8 4 3 5 11 12 14 15 14 13 12 12 11 10 11 10 9 9 9 8 8 8 8 10 11 11 10 10 10 10 11 12 11 11 11 11 11 12 12 12 12 12 11 11 11 12 12 12 13 14 15 14 12 13 15 16 16 17 18 20 18 16 16
13 11 17 19 15 19 19 16 19 16 11 10 12 13 13 13 11 8 4 1 4 8 7 6 6 5 5 8 11 13 15 14 13 12 11 11 11 10 10 9 9 8 8 8 8 8 10 11 11 10 10 10 11 11 12 12 12 11 12 12 12 12 13 13 12 12 12 12 12 12 13 14 15 15 17 15 13 15 17 17 17 18 20 19 16 17
11 10 18 21 17 19 18 17 19 17 13 10 11 12 12 13 12 8 6 4 6 9 7 8 9 9 7 6 9 14 15 13 12 12 11 11 11 10 10 9 9 9 8 8 8 8 9 10 10 10 10 10 10 11 11 11 11 11 11 12 12 13 14 14 14 13 13 13 13 13 14 16 16 15 17 16 15 15 15 15 16 17 19 19 18 19
12 8 14 20 18 18 19 16 15 17 19 15 11 12 11 12 12 9 8 8 9 10 7 10 12 10 9 8 12 16 16 14 13 13 12 11 10 10 10 10 9 9 8 8 7 7 8 9 10 10 9 10 10 10 11 10 11 11 11 12 13 14 14 14 14 13 13 13 13 14 15 16 16 16 17 16 16 16 14 14 14 15 17 19 19 20
10 7 10 17 19 17 16 13 12 15 18 16 13 13 11 10 11 10 8 7 9 10 8 10 12 10 8 12 17 19 18 18 15 14 12 11 11 9 9 9 8 8 8 7 6 6 7 9 9 9 9 9 9 10 11 11 11 11 12 13 13 14 14 14 14 14 14 14 14 15 16 16 16 17 17 16 15 15 14 13 12 13 15 17 19 21
8 7 8 14 18 15 11 12 15 15 15 15 14 14 11 9 9 10 9 8 9 10 8 8 10 5 1 7 17 20 18 18 16 14 12 11 11 10 9 9 8 8 7 6 6 6 7 8 9 9 10 10 10 11 11 11 12 12 13 13 13 14 16 16 15 15 16 15 15 16 17 17 16 16 17 16 15 13 12 12 12 13 14 14 17 21
7 7 8 11 14 14 13 16 18 17 17 14 11 12 13 11 10 10 10 10 10 9 8 8 7 4 4 1 10 16 16 16 16 14 12 12 12 11 10 9 8 7 7 7 6 7 8 8 9 10 11 11 11 12 12 12 12 12 14 13 12 14 17 17 17 17 17 16 16 17 17 17 16 16 16 17 16 14 13 13 13 13 14 15 17 18
7 6 9 11 12 14 16 19 20 20 20 16 12 13 14 13 11 10 10 10 9 10 10 9 7 5 4 1 8 14 14 16 15 14 14 12 11 11 10 9 9 8 7 7 7 7 8 8 9 10 11 11 12 12 13 12 12 13 13 13 13 15 17 17 17 17 16 17 17 17 16 16 16 16 17 17 16 15 15 15 15 14 15 16 17 15
6 6 9 11 11 13 16 19 18 17 16 15 14 14 14 13 13 11 9 9 8 9 10 8 7 4 3 1 10 13 14 15 15 14 15 13 11 11 10 9 9 8 8 8 7 8 8 9 10 10 11 11 12 12 12 12 12 12 13 14 14 16 17 17 17 16 16 17 17 16 16 16 16 16 17 17 17 17 17 17 17 16 15 16 18 15
5 7 9 9 10 10 11 14 14 13 13 12 13 15 16 17 18 14 10 8 7 9 10 6 5 5 2 4 12 15 15 16 15 13 15 14 12 10 9 9 9 8 8 8 8 9 9 9 10 10 11 11 11 12 12 12 12 12 13 14 14 15 16 16 17 17 16 17 17 17 17 17 16 16 17 17 17 18 18 18 18 18 17 17 18 17
7 8 8 9 11 12 10 10 12 12 11 10 14 18 19 20 20 15 9 7 7 10 12 7 5 8 7 8 13 16 16 17 15 14 13 13 12 11 9 9 8 8 8 8 8 8 9 10 11 11 11 11 11 12 12 12 12 12 13 14 14 15 16 16 17 17 16 17 18 18 18 18 17 17 18 18 18 19 19 19 19 20 19 18 18 18
7 5 4 3 7 11 12 13 14 14 12 13 17 21 20 20 20 16 11 8 8 9 10 7 13 15 12 12 14 15 16 16 15 14 14 13 12 11 9 9 8 8 8 8 8 8 9 10 11 12 11 11 11 12 12 12 12 12 13 14 15 15 16 17 17 17 17 17 17 17 18 18 18 18 18 18 19 19 19 20 19 20 19 19 18 18
6 4 4 1 1 5 11 14 17 18 17 17 17 18 18 18 18 16 12 7 5 8 5 10 20 20 15 15 16 14 14 15 14 13 13 12 12 11 10 10 9 9 9 8 8 8 9 9 10 11 12 11 11 11 12 12 12 13 13 14 15 16 16 17 16 17 17 17 18 18 19 19 19 19 19 19 19 18 19 20 20 20 20 20 19 18
5 5 6 6 4 2 5 10 15 18 18 16 15 16 16 15 13 12 10 3 3 4 6 12 18 20 16 15 15 13 13 14 13 13 12 12 13 12 11 11 10 10 9 9 9 9 9 9 10 11 11 11 12 12 12 12 13 14 14 15 16 16 16 16 16 17 17 17 19 19 20 20 20 20 20 20 19 19 19 20 20 21 22 22 21 19
4 3 7 10 8 4 4 8 11 14 15 15 14 13 11 12 12 8 4 5 5 7 13 16 18 17 14 14 14 12 11 13 13 12 12 13 13 13 12 11 10 10 10 9 9 8 8 9 9 10 11 12 13 14 13 13 13 14 14 15 15 16 16 16 16 16 17 17 18 19 20 20 20 21 21 21 20 20 20 20 20 21 22 23 23 21
3 3 7 10 8 6 6 8 8 8 10 11 10 7 6 9 11 8 7 10 12 13 16 20 19 14 10 12 15 13 11 13 13 13 13 13 12 13 12 11 10 10 10 9 8 8 8 9 10 10 11 12 13 13 13 14 14 14 15 15 15 16 16 16 16 16 17 17 18 19 20 20 21 21 21 22 21 20 21 21 21 21 22 23 24 23
4 5 7 8 8 6 8 11 12 13 13 12 11 8 4 6 9 10 7 6 10 15 17 16 13 9 9 13 15 13 13 13 13 13 12 11 11 12 11 11 10 10 9 8 8 8 8 9 10 11 11 12 12 13 13 14 14 14 15 15 15 15 15 15 16 16 17 18 18 19 20 20 21 21 22 22 22 21 21 21 21 21 21 22 24 24
6 5 6 8 8 8 10 13 15 16 12 10 9 5 3 5 10 12 10 9 8 11 10 6 8 11 14 15 15 15 14 13 12 11 11 11 11 11 11 11 10 9 9 8 8 9 9 10 11 11 11 12 12 12 13 13 13 14 14 15 15 15 15 15 15 16 17 18 18 19 19 20 20 21 22 22 22 22 22 21 22 22 22 21 22 22
11 8 6 6 6 8 13 13 12 12 9 5 4 2 3 5 11 13 13 13 11 9 8 10 14 17 15 15 16 15 13 12 12 11 10 10 10 10 10 10 10 9 9 8 9 10 10 10 10 11 11 12 12 12 12 13 13 13 14 14 15 15 16 16 16 17 18 18 18 19 19 20 20 20 21 22 22 22 22 22 22 22 22 21 21 22
12 10 5 4 5 6 10 11 9 8 4 3 2 0 3 8 14 17 15 13 12 13 16 18 19 17 16 15 15 15 14 14 13 12 11 10 9 10 10 9 9 8 8 8 9 10 10 11 11 12 11 11 10 11 12 13 13 14 14 14 15 16 16 16 17 18 18 18 19 19 19 19 19 19 21 21 22 22 22 22 22 22 21 21 21 22
10 9 5 4 4 5 6 7 7 4 3 3 5 6 7 10 12 13 13 12 10 11 15 18 18 17 17 16 15 15 16 15 14 11 10 10 9 9 9 9 9 8 8 9 10 10 10 10 10 9 9 10 11 12 13 13 13 13 14 15 16 16 16 16 17 18 19 19 19 19 20 19 18 19 20 21 21 22 22 22 22 21 21 20 20 21
9 8 7 5 4 6 5 4 5 5 5 5 6 7 7 6 5 6 8 7 7 9 13 17 18 17 16 16 16 15 15 14 12 9 8 9 9 10 10 10 10 10 10 11 11 10 9 9 8 8 9 11 12 12 12 12 12 12 13 14 15 16 16 16 17 18 19 20 20 19 19 19 18 19 20 20 21 21 21 21 21 21 20 20 20 21
9 7 8 7 5 5 5 5 5 5 4 4 8 8 5 2 3 8 9 6 5 9 13 15 17 17 16 16 16 15 11 9 8 6 7 9 9 10 11 11 11 11 11 11 10 10 9 9 9 10 10 10 11 12 12 12 13 13 13 14 14 15 16 16 17 18 18 18 19 19 20 19 19 19 19 20 20 21 21 21 21 20 20 19 19 20
6 5 7 8 7 6 5 5 5 3 1 3 9 9 6 2 3 6 5 4 7 10 13 15 17 16 16 16 15 12 8 6 6 6 7 9 10 11 11 11 12 12 11 10 10 10 9 9 9 10 10 10 11 12 11 12 13 13 14 14 14 14 15 16 17 17 17 17 18 19 20 20 19 19 19 19 20 20 20 21 21 20 20 19 19 19
2 4 7 8 7 7 7 5 3 3 3 5 9 9 7 4 4 6 5 5 11 12 13 15 17 15 15 14 11 7 5 6 8 9 10 11 12 12 11 11 12 12 11 10 9 9 9 9 10 10 11 11 11 11 11 12 12 13 13 14 14 15 16 16 16 16 16 16 17 18 20 20 20 19 18 18 18 18 18 19 19 20 20 20 20 19
3 4 6 7 7 8 8 5 4 4 4 6 8 7 7 5 5 5 2 7 14 15 13 14 16 15 14 11 7 4 5 10 13 13 14 13 12 12 13 13 13 12 11 10 9 9 10 10 11 11 11 12 12 12 12 12 12 13 13 14 15 16 16 15 15 15 15 15 16 17 19 20 19 18 18 18 18 17 17 18 18 19 19 19 19 19
4 4 5 6 6 7 6 6 6 4 3 4 6 6 4 3 3 3 6 11 15 16 15 15 16 15 12 9 8 9 12 17 18 16 14 13 13 13 13 13 13 12 11 10 10 10 11 11 12 12 12 12 12 13 13 13 13 13 13 14 15 15 15 15 15 15 15 15 15 15 17 18 18 18 18 19 19 19 19 19 18 18 19 19 18 19
2 1 4 4 1 4 7 6 4 4 3 6 8 6 1 1 4 9 11 14 16 15 15 15 14 13 12 12 14 15 17 19 18 16 15 14 13 14 14 14 13 12 12 11 10 10 11 12 12 12 12 12 12 12 13 13 14 13 13 14 14 14 14 14 15 15 15 15 15 15 16 17 18 19 19 19 19 20 21 20 19 19 19 20 19 19
6 4 2 4 5 1 5 5 3 5 7 7 5 4 4 5 9 12 12 13 14 14 13 12 12 12 13 15 17 17 18 18 17 16 15 14 13 14 14 14 13 13 12 12 12 11 11 12 12 12 11 11 11 12 12 13 13 13 13 14 13 13 13 14 14 14 15 16 16 16 16 17 19 20 19 19 19 20 21 22 21 20 20 20 20 20
7 6 5 7 7 6 6 7 7 8 8 6 5 8 11 12 13 13 14 13 12 11 11 11 13 14 15 17 18 17 16 16 16 16 15 14 14 14 14 14 14 13 12 12 12 12 12 12 11 11 11 11 11 11 12 12 13 13 13 13 13 13 13 13 14 14 14 15 16 16 16 16 18 20 20 20 20 20 21 22 23 22 21 20 20 20
6 5 5 7 9 10 11 9 9 10 9 10 10 11 12 13 13 13 14 13 12 12 11 12 14 16 16 17 17 16 15 16 17 16 14 14 14 15 15 15 14 13 13 13 12 12 11 12 11 11 11 11 11 11 11 11 12 13 13 13 13 13 13 13 14 14 14 14 14 15 16 16 16 18 20 21 21 21 21 22 23 23 23 22 21 21
3 1 4 7 7 5 6 8 9 10 11 11 12 12 13 14 13 12 12 13 13 14 14 15 17 17 17 17 17 17 17 17 17 16 14 13 14 15 16 15 14 13 13 13 12 11 11 11 11 10 11 11 10 10 10 11 12 13 13 12 12 13 13 13 14 14 14 14 14 14 15 16 15 15 16 18 20 21 21 21 22 22 22 22 21 21
2 3 5 8 5 5 8 10 10 11 12 11 11 11 12 14 14 13 14 15 16 16 17 18 18 16 15 16 17 18 18 16 16 16 13 12 14 16 16 15 15 14 13 12 11 11 10 11 10 10 10 10 9 10 10 11 12 12 12 12 12 12 13 13 14 14 14 14 14 14 14 15 16 15 14 15 18 20 20 19 18 19 20 21 21 20
3 4 5 9 9 8 9 11 11 12 12 11 11 12 12 12 14 16 16 17 18 18 18 18 18 17 17 18 18 18 17 16 16 17 15 14 15 16 16 15 14 13 12 12 11 10 10 10 10 10 10 10 9 10 11 11 12 12 13 13 13 13 12 12 13 13 14 13 14 14 14 14 15 16 14 12 14 17 19 19 18 16 17 20 23 24
3 6 8 9 8 7 8 12 12 11 10 10 11 13 13 14 16 17 17 18 18 18 18 18 19 20 21 22 21 18 16 16 17 18 17 16 16 17 16 15 14 13 13 12 11 10 10 10 9 10 10 10 9 10 11 12 12 12 12 13 13 13 13 12 12 12 13 13 13 13 13 13 14 15 14 12 11 12 14 16 18 17 16 18 22 25
3 6 5 4 5 7 12 14 11 9 11 11 12 13 14 14 16 17 18 18 18 18 19 19 20 19 19 20 21 20 17 17 19 19 18 17 17 17 16 15 14 14 13 12 12 11 11 9 9 9 10 11 10 9 10 11 12 12 12 13 13 13 13 14 13 13 13 14 14 13 12 13 13 13 13 14 13 10 8 9 12 14 15 16 18 21
Wind_Direction
187 194 202 209 208 206 206 208 218 221 213 199 196 211 206 198 201 183 177 177 184 191 192 196 172 138 141 135 137 138 146 160 158 171 173 164 173 172 159 145 129 120 111 104 104 119 116 98 83 67 52 50 52 43 39 45 51 49 48 62 76 76 88 72 356 295 269 275 285 285 278 271 264 259 260 257 256 257 252 247 243 234 235 235 230 228
192 207 207 207 210 207 206 208 216 225 228 211 197 205 207 201 200 176 166 172 180 194 196 185 158 139 140 126 133 141 145 155 163 174 176 170 167 156 144 131 117 109 107 108 106 109 100 83 74 68 56 52 57 55 48 45 43 39 32 39 53 62 70 56 358 292 265 269 274 275 269 268 269 265 263 262 262 261 255 249 242 235 235 234 232 236
198 213 208 204 209 209 206 208 213 221 229 222 201 203 204 197 187 152 153 172 180 199 197 171 149 138 139 127 133 141 140 139 138 147 160 162 151 134 122 111 108 106 102 103 95 85 80 73 71 74 71 63 60 59 55 50 49 46 41 40 44 50 53 45 357 286 274 272 267 265 266 269 268 266 269 269 267 263 255 252 249 242 239 235 235 239
201 210 207 202 207 210 204 204 210 214 216 216 207 203 198 193 189 159 161 180 187 203 189 157 150 144 136 134 138 135 131 129 119 109 104 121 127 118 106 91 94 105 99 91 80 71 72 71 71 75 77 72 65 60 56 51 50 51 48 44 43 46 43 35 24 324 291 272 263 259 266 273 270 269 271 268 266 262 256 256 252 246 243 239 238 239
207 201 202 202 206 209 202 201 207 206 203 214 214 208 204 195 183 155 164 180 189 202 187 164 162 162 159 159 152 141 134 129 123 114 105 104 110 110 106 95 89 90 88 86 79 72 74 72 69 70 70 71 67 60 55 51 50 54 54 52 55 62 59 43 8 305 285 271 259 244 248 261 263 263 261 259 263 261 255 255 252 247 245 244 245 244
210 196 196 201 202 206 204 201 203 198 197 212 217 221 218 194 173 160 171 180 185 198 194 184 182 178 181 177 163 158 150 138 131 124 119 115 116 116 111 109 102 87 79 84 82 77 76 72 68 65 62 64 63 59 59 59 60 65 68 67 70 78 85 92 271 269 262 258 256 251 250 257 265 267 263 265 269 265 258 259 260 255 247 245 248 249
211 193 191 200 199 202 206 202 197 196 205 207 205 223 223 193 180 177 175 180 188 194 191 191 192 176 179 181 169 167 161 148 134 121 122 122 116 105 93 95 98 90 83 83 82 78 75 72 70 68 65 62 61 63 69 72 70 70 71 70 73 76 93 121 181 264 256 257 258 263 267 269 275 280 280 283 283 275 268 264 261 257 249 244 246 247
205 193 189 200 199 199 205 200 192 196 215 205 182 211 227 201 187 182 178 188 197 189 184 193 204 192 177 181 171 169 165 153 141 127 122 115 104 97 86 82 82 83 83 81 76 71 67 65 64 65 63 57 52 53 61 69 69 66 64 58 58 58 62 104 150 258 256 269 277 280 279 276 278 283 289 292 284 274 271 263 251 249 249 245 241 241
196 200 191 194 194 194 202 199 191 197 216 210 173 196 235 212 185 179 190 201 195 191 189 194 208 207 174 177 170 170 172 159 146 133 118 102 97 97 93 86 81 78 77 76 71 65 61 58 56 56 54 48 41 38 43 54 56 51 48 43 43 41 36 44 310 285 275 276 287 291 285 281 282 287 295 293 283 272 266 261 251 246 243 239 235 234
192 208 189 183 195 197 200 203 194 195 216 212 172 183 228 218 182 182 201 206 196 205 201 191 203 208 167 170 176 176 177 164 145 130 117 106 100 95 91 88 84 80 77 75 73 69 65 62 58 57 56 51 44 37 36 42 43 37 31 28 31 28 16 360 314 303 299 288 290 293 291 289 287 288 291 290 285 269 254 252 247 241 235 230 230 227
186 198 185 184 209 204 198 206 195 195 216 214 175 180 205 206 190 197 206 208 203 209 207 196 201 209 184 170 188 185 173 163 149 137 128 117 105 97 93 89 84 80 76 74 73 70 67 65 62 59 57 53 48 42 38 37 35 33 26 21 23 18 2 349 333 317 311 303 296 295 296 295 290 281 279 277 272 259 247 244 231 227 231 227 226 220
178 185 194 195 212 207 197 202 190 195 214 212 181 186 193 188 199 209 206 212 213 204 207 203 201 209 205 180 186 171 155 156 155 152 143 127 112 104 96 88 83 77 75 73 71 68 65 62 58 54 52 49 45 39 34 32 29 28 25 17 16 11 360 350 340 330 322 315 308 305 302 299 293 276 271 272 269 258 247 243 228 223 231 227 225 219
182 188 197 194 203 204 200 196 184 196 208 198 187 195 192 181 192 203 200 210 218 207 207 201 197 206 198 162 159 142 139 146 141 144 140 127 117 108 97 88 84 78 76 73 69 67 62 58 53 48 46 41 38 33 29 27 23 21 20 13 8 4 356 350 341 334 329 321 318 318 312 309 305 282 269 271 274 268 255 249 241 235 236 232 229 224
186 190 192 191 195 199 206 199 180 194 201 190 191 198 194 184 185 196 195 202 212 206 209 202 193 190 149 136 132 119 115 114 113 118 121 117 112 106 100 95 90 85 79 73 69 66 59 56 52 44 41 36 32 29 25 24 20 17 17 12 7 2 356 351 344 337 330 325 323 322 317 315 311 297 278 268 266 264 254 251 251 249 246 242 237 232
187 187 188 191 186 189 206 206 187 192 194 193 202 203 202 197 188 194 195 202 204 195 208 205 189 167 135 119 109 110 107 103 104 108 110 109 109 108 104 102 97 89 82 73 69 67 59 55 51 44 39 32 28 27 23 21 19 16 14 10 6 2 357 353 347 341 334 330 329 327 324 319 313 307 298 279 266 264 260 254 254 257 256 254 250 244
193 191 186 191 184 187 204 203 189 194 192 192 209 210 207 203 184 187 209 217 203 187 198 197 145 76 118 114 114 121 117 114 112 113 117 115 112 111 104 100 96 87 84 78 72 68 60 54 49 44 39 31 25 23 20 18 16 15 12 8 6 1 356 353 349 346 343 337 333 331 329 325 317 310 304 292 274 272 273 266 260 262 265 264 261 257
195 189 178 184 187 190 203 202 189 196 195 189 207 211 208 209 195 188 204 199 190 192 189 168 107 91 129 127 135 138 125 125 128 124 127 121 115 113 104 101 96 89 85 78 72 67 59 55 48 42 36 29 24 18 16 15 14 14 10 6 5 0 357 354 351 350 348 344 339 335 333 331 326 315 309 305 292 282 283 281 272 267 271 272 269 267
199 187 170 179 187 184 195 209 199 198 204 196 202 206 202 210 212 201 194 179 193 201 190 174 154 148 165 159 155 152 138 138 143 136 133 127 120 113 106 105 97 91 85 73 71 64 55 50 43 37 29 24 21 15 14 13 12 12 8 6 6 2 360 357 353 351 349 347 345 341 338 334 330 322 316 313 308 302 301 298 289 279 275 275 273 271
204 192 166 178 190 178 180 208 208 198 209 212 201 205 206 206 206 201 198 196 197 200 194 186 179 179 191 173 163 165 152 145 148 142 138 131 123 114 107 103 95 90 82 69 65 56 49 45 36 31 26 21 19 16 14 12 12 12 9 9 9 5 3 359 356 354 352 351 349 345 341 336 333 329 325 324 322 318 310 302 296 289 280 276 274 272
203 195 170 180 189 177 171 201 208 189 205 217 205 206 221 217 206 200 201 202 201 202 198 194 194 199 197 170 168 170 156 150 152 146 141 131 123 117 107 102 93 87 81 72 66 55 49 45 37 32 28 24 22 19 17 14 14 14 11 11 10 6 4 2 2 360 356 354 351 347 344 340 338 334 332 334 334 327 314 303 297 290 281 279 278 273
197 185 175 178 184 181 176 199 206 190 195 211 203 198 207 212 209 208 205 204 210 207 194 194 197 188 144 164 167 163 155 154 152 142 135 128 120 113 105 103 96 90 85 75 67 59 51 46 42 39 34 30 26 22 19 17 15 14 12 10 7 8 7 6 7 4 359 356 352 349 346 344 342 339 337 336 336 335 326 314 305 297 290 285 279 272
189 173 175 183 185 189 188 192 200 200 197 202 207 205 205 203 202 206 206 204 212 213 197 194 189 136 45 26 162 155 152 150 145 138 130 124 118 110 105 104 99 94 88 77 70 63 55 50 46 44 39 34 30 25 20 18 16 14 13 7 5 14 14 9 10 7 2 358 354 351 349 348 346 343 340 337 336 337 331 320 312 305 299 291 282 277
190 184 183 190 189 189 187 188 200 206 198 196 211 218 209 203 204 206 205 201 209 220 209 193 170 119 41 20 151 150 148 140 137 139 132 122 117 112 110 106 100 95 86 78 74 66 58 54 48 44 41 37 33 27 21 18 16 13 12 6 6 16 16 12 13 10 6 3 359 356 354 351 350 347 345 342 338 335 329 321 315 308 299 293 288 285
190 200 191 193 189 186 185 185 197 209 202 195 208 219 212 204 208 215 215 201 206 224 219 196 164 130 18 102 141 141 141 135 134 138 133 124 118 113 111 107 101 96 88 84 80 70 63 56 49 45 42 38 33 27 22 19 17 15 13 9 8 14 15 14 13 10 8 7 3 1 360 357 354 351 348 346 341 336 329 322 318 312 304 300 298 295
185 201 192 191 181 179 188 185 187 205 213 201 199 211 215 207 205 217 225 209 212 222 215 204 163 137 83 123 135 134 136 132 130 133 129 123 119 114 110 107 105 101 94 88 81 72 64 57 51 46 43 39 34 29 23 20 18 17 15 12 11 12 13 14 12 9 8 8 5 4 2 1 360 356 351 346 341 338 333 326 322 318 311 307 305 301
189 198 187 197 191 178 183 188 182 190 206 204 195 201 212 212 204 208 216 201 205 219 213 199 141 127 120 118 125 131 134 129 127 127 122 119 119 117 115 113 108 104 97 89 81 72 65 59 53 49 45 40 36 30 25 22 20 18 16 14 14 14 13 13 10 7 7 7 6 5 3 3 2 358 354 349 343 340 337 331 326 321 314 310 307 304
188 199 172 225 224 192 185 189 186 185 195 204 200 196 204 211 203 201 216 209 197 218 220 167 133 134 138 133 128 131 132 128 128 128 122 119 119 118 120 117 111 107 100 91 83 73 66 61 55 51 48 43 38 31 27 25 22 19 18 17 17 17 15 11 7 6 6 6 6 6 6 5 2 358 356 352 346 342 340 336 331 326 320 312 307 304
183 190 159 94 295 206 193 188 184 187 194 200 201 196 199 209 208 203 205 202 209 225 208 138 136 141 148 146 139 136 134 131 131 130 125 123 123 122 122 120 115 111 104 96 87 74 67 63 57 54 50 42 34 29 27 28 25 22 21 19 19 17 14 10 7 8 7 4 5 7 7 5 1 358 356 353 349 346 343 340 337 333 330 324 317 308
181 179 172 149 106 109 182 185 187 193 194 192 195 198 200 205 211 209 197 194 284 230 154 139 141 140 143 147 139 135 135 131 128 127 125 124 124 124 123 120 116 110 105 100 89 76 67 62 58 52 43 31 24 22 23 24 24 24 22 21 19 15 13 11 7 7 8 5 4 4 4 4 1 359 358 355 353 350 347 345 342 340 339 339 335 325
161 158 174 159 134 117 159 178 190 195 191 184 183 189 201 204 202 204 173 106 93 113 124 131 128 123 131 140 131 126 126 124 122 122 124 125 124 124 123 121 118 112 106 98 86 76 67 58 52 43 31 23 19 19 18 18 21 21 19 19 18 14 13 11 8 9 8 7 6 3 2 3 2 1 360 358 356 353 351 350 348 347 346 346 346 342
148 168 176 155 134 135 158 165 164 154 148 150 151 149 174 190 176 148 105 101 105 106 113 120 116 109 119 126 122 120 119 119 121 122 123 123 123 124 123 122 119 112 104 95 84 76 67 55 48 37 27 23 20 18 16 16 18 19 18 17 16 13 11 10 10 10 8 7 7 4 4 4 3 3 2 0 359 357 355 354 353 352 351 350 353 353
176 173 172 158 144 142 157 161 147 124 111 105 99 93 114 145 132 116 103 108 124 126 124 122 122 127 132 126 122 122 122 121 121 121 121 121 122 124 123 121 117 108 99 92 82 76 67 56 47 35 27 24 20 18 18 15 16 18 17 16 15 12 12 12 11 11 10 8 7 6 7 6 6 6 5 3 3 0 359 359 358 357 356 354 355 357
167 164 181 174 157 151 158 154 142 135 129 113 96 62 34 103 108 98 78 61 93 133 140 131 131 138 139 133 127 126 125 122 120 119 119 120 122 121 120 119 115 104 91 83 77 71 63 55 46 36 30 29 25 21 20 17 17 18 17 16 16 14 14 14 12 12 13 10 9 9 8 8 9 10 8 6 5 4 3 3 2 2 1 358 357 357
166 169 191 176 155 155 157 153 158 168 163 131 115 326 328 101 103 93 80 64 63 84 90 95 117 132 137 135 128 124 121 116 112 109 111 117 119 117 116 117 113 101 88 80 75 68 61 56 49 41 37 35 31 26 24 21 20 20 19 19 19 19 18 14 13 16 16 12 11 10 8 9 11 11 11 9 8 7 7 6 5 4 2 2 1 0
173 169 168 153 147 151 153 161 182 189 161 103 135 318 42 91 93 86 81 73 73 89 98 106 120 131 128 123 118 115 111 105 100 99 102 108 113 115 114 113 108 97 84 79 75 68 63 58 51 46 41 34 29 29 28 25 21 22 23 22 22 22 19 15 16 19 17 15 13 11 9 10 11 12 13 13 12 12 10 8 7 5 4 5 6 5
184 174 147 117 136 152 166 177 174 146 99 117 141 120 109 121 116 93 76 67 76 101 113 116 122 123 118 115 114 112 110 104 93 88 95 102 108 112 113 112 108 98 88 84 78 71 68 62 54 49 42 32 26 26 28 24 21 23 24 22 24 23 18 15 19 20 18 17 15 11 10 11 12 14 14 15 15 15 13 11 10 8 7 8 9 8
190 179 145 132 172 177 155 117 112 126 136 148 159 150 137 142 144 109 89 77 84 104 119 123 124 122 119 119 119 120 118 106 90 81 90 101 106 108 107 109 107 100 93 88 81 75 72 66 55 45 39 35 29 27 26 22 19 22 23 22 24 23 19 18 22 21 20 20 18 15 16 16 17 17 16 16 18 17 16 15 13 11 12 12 13 13
185 187 161 151 180 184 142 116 135 153 157 166 177 177 157 106 95 108 108 105 107 120 131 132 129 129 129 129 133 138 131 105 88 93 108 111 112 111 108 107 104 98 93 88 83 78 72 64 55 45 40 40 35 30 29 25 21 21 21 21 22 22 22 22 24 24 24 25 24 23 23 23 22 21 19 19 20 19 19 20 17 16 17 17 17 18
162 196 189 170 171 171 167 176 170 143 66 141 158 166 174 192 171 145 135 137 140 142 143 140 136 137 138 139 146 155 148 113 109 130 132 125 120 116 113 110 105 101 94 88 84 79 72 65 60 53 47 44 39 33 32 31 30 28 26 23 23 24 26 25 25 28 28 28 28 26 25 25 23 21 20 19 20 19 19 20 21 21 23 24 23 21
131 216 201 187 182 174 174 178 142 75 62 117 141 157 164 165 197 211 211 162 148 149 149 145 142 140 141 144 155 172 162 135 139 143 137 130 123 116 113 110 107 103 98 91 85 79 74 68 63 60 55 50 45 40 37 37 37 36 32 29 27 27 28 27 27 30 30 29 29 28 27 26 24 21 19 17 17 18 19 19 20 19 20 24 25 24
179 200 187 183 182 178 173 154 101 80 97 123 139 151 145 150 198 216 171 131 143 148 146 144 141 138 141 146 153 147 106 110 126 134 132 130 124 117 114 111 106 102 98 94 88 83 79 73 69 67 62 57 52 47 44 42 42 40 36 32 31 29 27 28 29 31 32 30 28 27 26 26 25 23 20 16 15 16 18 19 19 18 17 18 20 22
171 170 164 171 184 179 157 119 105 100 99 136 141 130 134 180 190 127 104 123 138 142 141 141 137 135 134 125 114 108 104 110 122 129 129 129 125 121 118 114 109 106 103 101 97 91 87 82 76 72 68 63 58 53 48 44 42 42 40 37 35 31 27 26 28 31 33 32 31 29 27 26 26 24 22 20 18 18 18 17 18 20 19 17 18 20
32 215 158 125 124 175 151 132 132 125 136 170 158 132 88 274 120 115 120 128 132 135 137 136 133 133 129 117 112 114 115 118 123 125 125 126 123 119 117 113 111 110 109 106 101 95 91 86 80 75 70 64 58 53 50 47 44 42 42 41 38 34 30 28 28 30 32 32 31 30 28 27 25 24 23 24 24 23 21 19 18 20 20 20 21 21
12 334 154 80 2 278 152 125 87 96 125 163 163 113 90 101 119 128 129 127 129 134 134 131 129 132 130 125 122 121 120 121 124 124 125 124 121 119 118 115 113 110 107 104 100 96 93 88 82 78 71 63 58 52 47 47 46 43 42 42 40 38 36 32 31 31 31 31 30 28 28 29 28 26 23 23 24 26 25 22 21 20 20 21 22 23
38 41 82 72 44 45 79 93 89 89 101 110 94 96 107 112 121 128 126 125 130 131 129 130 130 130 128 126 125 123 122 124 125 125 124 123 122 121 119 117 116 112 109 106 102 97 93 88 83 79 72 65 59 54 48 45 46 45 43 41 40 38 38 35 34 33 30 30 31 28 28 31 32 31 29 26 24 25 26 25 23 21 20 21 22 23
72 73 79 92 99 84 72 86 102 97 96 100 98 105 114 116 120 124 123 125 127 125 127 131 131 131 131 129 126 125 126 127 126 125 124 124 123 123 121 121 120 117 112 107 103 99 95 90 84 77 72 67 59 55 52 47 45 45 42 40 39 39 39 37 36 36 32 31 31 29 29 31 31 32 35 34 31 30 30 30 29 25 22 21 22 24
108 132 101 117 140 126 86 95 107 105 107 108 106 110 115 115 117 121 122 125 124 124 126 128 128 131 131 130 128 127 127 129 127 125 125 125 124 126 126 124 122 117 112 107 104 102 95 88 84 77 71 67 60 56 54 49 47 46 43 41 41 40 40 40 38 37 36 33 32 31 31 32 30 31 36 38 36 34 33 34 35 33 29 24 21 22
142 181 122 96 90 94 105 115 114 107 110 113 113 116 118 117 116 114 116 120 121 121 123 125 129 132 131 129 129 128 128 130 129 127 129 130 131 130 126 122 120 115 112 108 105 102 95 90 88 83 76 73 67 60 57 53 49 47 43 42 43 43 43 43 40 40 39 36 33 32 32 32 31 33 42 48 44 40 38 39 41 43 41 37 33 29
140 157 103 86 91 96 112 126 121 109 110 112 113 116 117 117 118 116 116 120 121 122 124 126 127 128 128 129 131 130 130 133 132 131 132 132 131 128 123 122 121 117 114 110 104 102 102 98 94 87 80 76 70 64 61 56 50 47 45 42 41 43 44 44 44 42 40 37 34 31 30 30 29 30 41 58 62 56 53 50 50 53 54 51 48 44
151 129 98 107 130 137 146 151 140 123 121 121 118 120 120 121 123 123 122 124 125 127 129 128 126 126 128 130 133 132 131 132 132 131 130 128 128 128 126 126 125 120 117 117 113 109 106 100 97 96 90 83 73 64 62 60 53 49 47 45 43 43 41 40 42 43 41 40 37 31 27 27 28 26 29 40 55 64 65 60 56 56 58 56 52 47
88 118 121 154 153 141 150 154 141 121 125 128 125 125 125 126 129 128 128 129 129 130 131 130 129 130 130 132 134 133 130 132 133 132 130 128 129 130 129 128 127 125 123 121 117 112 105 98 95 93 86 82 76 63 57 59 57 53 50 47 46 45 42 38 35 36 37 39 38 34 29 28 29 26 23 24 28 34 49 65 65 57 52 52 51 47